www.pogodaiklimat.ru

Погода и климат >> Архив погоды >> Индия >> Лакшадвип >> Остров Амини


ПОГОДА на Острове Амини

  • Прогноз погоды на Острове Амини
  • Монитор погоды на Острове Амини

АРХИВ ПОГОДЫ на Острове Амини

Время (UTC), дата Ветер
(напр.,м/с)
 
Видим.   Явления Облачность Т
(С)
Тd
(С)
f
(%)
Тe
(С)
Тes
(С)
Комфортность P
(гПа)
Po
(гПа)
Тmin
(С)
Tmax
(С)
R
(мм)
R24
(мм)
S
(см)
03 17.07 З 9 2000 м 10/8 540 м
[Cb cap As op]
+29.0 +26.2 85 +44 +44 опасность
перегрева
1008.4 1008.1 +25.4 +29.0 23
06 17.07 З 10 4000 м в посл. час дождь 10/8 450 м
[Cb cap As op]
+26.8 +25.7 94 +40 +40 очень
душно
1009.5 1009.2 2
09 17.07 З 3 4000 м в посл. час дождь 10/8 240 м
[Cb cap As op]
+26.4 +25.8 97 +39 +40 очень
душно
1007.5 1007.2 8
12 17.07 СЗ 2 2000 м дождь 10/8 240 м
[Cb cap As op]
+25.2 +24.9 98 +36 +36 очень
душно
1007.4 1007.1 +29.2 30
15 17.07 З 5 4000 м в посл. час дождь 10/5 240 м
[St As op]
+26.6 +24.9 90 +38 +38 очень
душно
1007.1 1006.8 38
18 17.07 З 4 2000 м слаб. дождь 10/6 240 м
[Frnb As op]
+26.0 +25.7 98 +38 +38 очень
душно
1008.1 1007.8 52
21 17.07 З 6 2000 м дождь 10/6 240 м
[Cb cap As op]
+24.8 +24.2 96 +34 +34 очень
душно
1007.1 1006.8 80
00 18.07 З 7 2000 м дождь 10/6 240 м
[Cb cap As op]
+26.0 +25.4 97 +38 +38 очень
душно
1005.1 1004.8 104
03 18.07 З 3 4000 м в посл. час дождь 10/8 240 м
[Frnb As op]
+25.0 +24.7 98 +35 +35 очень
душно
1007.3 1007.0 +23.6 +29.2 141
06 18.07 З 7 4000 м в посл. час дождь {морось} 10/8 240 м
[Cb cap As op]
+26.4 +25.3 94 +38 +39 очень
душно
1008.1 1007.8 4
09 18.07 З 7 2000 м слаб. дождь 10/6 240 м
[Cb cap As op]
+26.0 +25.1 95 +37 +38 очень
душно
1007.5 1007.2 8
12 18.07 З 11 2000 м в посл. час дождь 10/8 240 м
[Cb cap As op]
+26.6 +25.2 92 +38 +38 очень
душно
1006.1 1005.8 +27.8 39
15 18.07 З 10 2000 м слаб. дождь 10/6 450 м
[Cb cap As op]
+26.2 +25.1 94 +38 +38 очень
душно
1007.3 1007.0 42
18 18.07 З 12 2000 м слаб. дождь 10/8 240 м
[Cb cap As op]
+25.6 +25.3 98 +37 +37 очень
душно
1008.3 1008.0 48
03 19.07 З 13 2000 м в посл. час морось {дождь} 10/8 240 м
[St As op]
+26.4 +25.3 94 +38 +38 очень
душно
1006.2 1005.9 +24.6 +27.8 55
06 19.07 З 12 2000 м дождь 10/8 450 м
[Cb cap As op]
+25.4 +25.1 98 +36 +36 очень
душно
1007.7 1007.4 5
09 19.07 З 11 2000 м слаб. дождь 10/8 240 м
[Cb cap As op]
+26.8 +25.1 90 +39 +39 очень
душно
1006.0 1005.7 16
12 19.07 нст 6 4000 м слаб. морось {дождь} 10/8 240 м
[Cb cap As op]
+26.6 +25.2 92 +38 +38 очень
душно
1004.7 1004.4 +27.0 20
15 19.07 З 8 2000 м в посл. час дождь 10/8 240 м
[Cb cap As op]
+26.6 +25.5 94 +39 +39 очень
душно
1005.4 1005.1 27
18 19.07 СЗ 11 2000 м в посл. час дождь 10/6 240 м
[Cb cap As op]
+27.0 +25.9 94 +40 +40 очень
душно
1006.1 1005.8 30
21 19.07 З 10 2000 м в посл. час дождь 10/6 240 м
[Cb cap As op]
+27.6 +25.9 90 +41 +41 опасность
перегрева
1004.3 1004.0 31
00 20.07 З 12 2000 м слаб. дождь 10/6 240 м
[Cb cap As op]
+28.0 +26.6 92 +43 +43 опасность
перегрева
1003.5 1003.2 35
03 20.07 З 12 4000 м слаб. дождь 10/8 240 м
[Cb cap As op]
+26.0 +25.7 98 +38 +38 очень
душно
1005.0 1004.7 +23.7 +27.0 55
06 20.07 З 11 2000 м слаб. дождь 10/8 240 м
[Cb cap As op]
+25.4 +24.8 96 +36 +36 очень
душно
1006.3 1006.0 10
09 20.07 З 12 4000 м слаб. морось {дождь} 10/8 240 м
[Cb cap As op]
+26.8 +25.4 92 +39 +39 очень
душно
1005.3 1005.0 14
12 20.07 З 11 4000 м слаб. морось {дождь} 10/8 240 м
[Frnb As op]
+27.0 +26.2 95 +41 +41 опасность
перегрева
1003.9 1003.6 +27.8 15
15 20.07 З 14 2000 м в посл. час дождь 10/6 450 м
[Cb cap As op]
+27.4 +24.5 84 +39 +39 очень
душно
1005.0 1004.7 18
18 20.07 З 13 2000 м {дождь} 9/6 450 м
[Cb cap As op]
+27.4 +26.0 92 +41 +41 опасность
перегрева
1005.9 1005.6 18
00 21.07 З 14 2000 м {дождь} 10/8 450 м
[Cb cap As op]
+27.0 +25.9 94 +40 +40 очень
душно
1003.9 1003.6 20
03 21.07 З 13 4000 м слаб. дождь 10/6 300 м
[Cb cap As op]
+26.6 +25.5 94 +39 +39 очень
душно
1005.9 1005.6 +25.4 +27.8 27
06 21.07 З 11 4000 м слаб. дождь 10/8 240 м
[Cb cap As op]
+27.4 +26.0 92 +41 +41 опасность
перегрева
1007.1 1006.8 2
09 21.07 З 11 2000 м в посл. час дождь 10/8 240 м
[Cb cap As op]
+25.2 +24.9 98 +36 +36 очень
душно
1005.9 1005.6 27
12 21.07 З 15 4000 м {дождь} 10/8 240 м
[Cb cap As op]
+27.6 +25.3 87 +40 +40 очень
душно
1003.9 1003.6 +27.6 34
15 21.07 З 13 4000 м 10/6 240 м
[St Ac As]
+28.0 +25.2 85 +41 +41 опасность
перегрева
1004.6 1004.3 34
18 21.07 З 12 4000 м 10/6 240 м
[St Ac As]
+28.6 +26.6 89 +44 +44 опасность
перегрева
1006.3 1006.0 34
21 21.07 З 13 4000 м {дождь} 9/6 240 м
[St As op]
+28.8 +26.0 85 +43 +43 опасность
перегрева
1004.5 1004.2 34
00 22.07 З 13 4000 м {дождь} 10/8 240 м
[Cb cap As op]
+28.2 +26.2 89 +43 +43 опасность
перегрева
1004.3 1004.0 34
03 22.07 З 13 2000 м {дождь} 10/5 540 м
[Cb cap As op]
+28.2 +26.5 91 +44 +44 опасность
перегрева
1005.8 1005.5 +26.2 +27.6 35
06 22.07 З 14 2000 м {дождь} 10/6 540 м
[Cb cap As op]
+29.0 +25.6 82 +43 +43 опасность
перегрева
1006.3 1006.0
09 22.07 З 13 4000 м 10/5 540 м
[Cb cap As op]
+29.0 +26.5 86 +44 +44 опасность
перегрева
1005.0 1004.7
12 22.07 З 13 4000 м 10/8 540 м
[Cb cap As op]
+28.8 +26.6 88 +45 +45 опасность
перегрева
1004.3 1004.0 +29.2
15 22.07 З 4 4000 м 9/6 540 м
[Cu Sc As op]
+28.6 +26.6 89 +44 +44 опасность
перегрева
1006.4 1006.1
18 22.07 З 3 4000 м 8/6 540 м
[Cu Sc As op]
+28.4 +23 +23 комфорт 1006.9 1006.6
21 22.07 З 5 4000 м 9/6 540 м
[Cu Sc Ac As]
+28.2 +26.5 91 +44 +44 опасность
перегрева
1004.8 1004.5
00 23.07 З 8 4000 м 9/6 540 м
[Cu Sc As op]
+28.4 +26.2 88 +43 +43 опасность
перегрева
1004.4 1004.1
03 23.07 З 9 4000 м слаб. морось {дождь} 10/6 240 м
[Cb cap As op]
+28.2 +25.7 86 +42 +42 опасность
перегрева
1006.2 1005.9 +26.3 +29.2 0.5
06 23.07 З 5 4000 м {дождь, морось} 10/8 240 м
[St As op]
+28.8 +26.9 89 +45 +45 опасность
перегрева
1006.8 1006.5
09 23.07 З 7 4000 м 10/6 240 м
[Cb cap As op]
+29.6 +26.8 85 +46 +47 опасность
перегрева
1005.5 1005.2
12 23.07 З 7 4000 м 10/8 240 м
[Frnb As op]
+28.6 +26.6 89 +44 +44 опасность
перегрева
1005.2 1004.9 +29.6
15 23.07 З 10 4000 м 10/5 540 м
[Sc As op]
+28.6 +26.6 89 +44 +44 опасность
перегрева
1007.0 1006.7
18 23.07 З 13 2000 м в посл. час дождь 10/6 450 м
[Cb cap As op]
+26.6 +25.2 92 +38 +38 очень
душно
1008.0 1007.7 2
21 23.07 З 9 2000 м в посл. час морось 10/5 450 м
[Cb cap As op]
+28.0 +26.9 94 +44 +44 опасность
перегрева
1006.1 1005.8 2

 

Местоположение метеостанции Остров Амини (Лакшадвип, Индия): широта 11.12 долгота 72.73 высота над уровнем моря 3 м.

В архиве по умолчанию представлена погода на Острове Амини за последнюю неделю. Архивные данные за месяц целиком и за предыдущие месяцы, начиная с января 2011 года, Вы можете получить, выбрав интересующий диапазон дат из раскрывающегося списка и нажав кнопку "Ввод!".


*Определитесь, кто Вы:
робот инопланетянин человек

Внимание! Время в таблицах - всемирное. Для получения местного времени необходимо прибавить поправку, которая равна 5.5 ч.

Смотрите также архив погоды в соседних городах и на ближайших метеорологических станциях:

Погода на Агати (Лакшадвип, Индия) (68 км)
Погода в Каннаноре (Керала, Индия) (294 км)
Погода в Мангалоре (Карнатака, Индия) (306 км)
Погода в Мангалор аэропорт (Карнатака, Индия) (308 км)
Погода на Миникое (Лакшадвип, Индия) (317 км)
Погода в Кожикоде (Керала, Индия) (333 км)
Погода в Карипере (Керала, Индия) (351 км)
Погода в Мадикери (Карнатака, Индия) (357 км)
Погода на Агамбе (Карнатака, Индия) (368 км)
Погода в Ширали (Карнатака, Индия) (382 км)

Пояснения к столбцам:

Ветер - указаны скорость ветра в м/с - средняя за 10 мин, порывы в срок и между сроками (в фигурных скобках) и направление, откуда дует ветер: С - северный, СВ - северо-восточный, В - восточный, ЮВ - юго-восточный, Ю - южный, ЮЗ - юго-западный, З - западный, СЗ - северо-западный.
Видимость - горизонтальная дальность видимости в метрах или километрах. При видимости от 1 до 10 км при отсутствии осадков обычно наблюдается дымка, при ухудшении видимости до 1 км и менее - туман. В сухую погоду видимость может ухудшаться дымом, пылью или мглою.
Явления - указаны атмосферные явления, наблюдавшиеся в срок или в последний час перед сроком; фигурными скобками обозначены явления, наблюдавшиеся между сроками (за 1-3 часа до срока); квадратными скобками обозначены град или гололедные отложения с указанием их диаметра в мм.
Облачность - указаны через наклонную черту общая и нижняя облачность в баллах и высота нижней границы облаков в метрах; квадратными скобками обозначены формы облаков: Ci - перистые, Cs - перисто-слоистые, Cc - перисто-кучевые, Ac - высококучевые, As - высокослоистые, Sc - слоисто-кучевые, Ns - слоисто-дождевые, Cu - кучевые, Cb - кучево-дождевые. Подробнее классификацию облаков см. в Атласе облаков (PDF).
T - Температура воздуха - температура, измеренная на высоте 2 м над землей.
Td - Температура точки росы - температура, при понижении до которой содержащийся в воздухе водяной пар достигнет насыщения.
f - Относительная влажность воздуха - влажноcть воздуха, измеренная на высоте 2 м над землей.
Te - Эффективная температура - температура, которую ощущает одетый по сезону человек в тени. Характеристика душности погоды. При расчете учитывается влияние влажности воздуха и скорости ветра на теплоощущения человека.
Tes - Эффективная температура на солнце - температура, которую ощущает человек, с поправкой на солнечный нагрев. Характеристика знойности погоды. Зависит от высоты солнца над горизонтом, облачности и скорости ветра. Ночью, в пасмурную погоду, а также при ветре 12 м/с и более поправка равна нулю.
P - Атмосферное давление - приведенное к уровню моря атмосферное давление.
Po - Атмосферное давление - измеренное на уровне метеостанции атмосферное давление.
Tmin - Минимальная температура - минимум температуры воздуха на высоте 2 м над землей.
Tmax - Максимальная температура - максимум температуры воздуха на высоте 2 м над землей.
R - Количество осадков - Количество выпавших осадков за период времени, мм. При наведении курсора мыши на число - период времени, за который выпало указанное количество осадков.
R24 - Количество осадков - Количество выпавших осадков за 24 часа, мм.
S - Снежный покров - Высота снежного покрова, см. При наведении курсора мыши на число - состояние снежного покрова и степень покрытия местности в баллах.